Location: Brodeslavy
(49.9527°N, 13.5567°E)
Time: 05:02:55
(UTC+00:00)

Spot 2 Rocket - Pass Details

Date: 17 June 2025
Orbit: 753 x 766 km, 98.3° (Epoch: 12 July)

Event Time Altitude Azimuth Distance (km) Brightness Sun altitude
Exits shadow 19:51:19 - 158° (SSE) 2,864 5.9 -4.8°
Reaches altitude 10° 19:52:45 10° 157° (SSE) 2,294 5.4 -5.0°
Maximum altitude 19:57:47 76° 72° (ENE) 794 3.6 -5.5°
Drops below altitude 10° 20:02:53 10° 348° (NNW) 2,317 7.1 -6.1°
Sets 20:05:13 0° 347° (NNW) 3,249 8.0 -6.3°
